DW9004 Weather Reports


Display with metric or nautical units.
time (UTC)temp
F
wind
direction
speed
MPH
gust
MPH
rain 1hr
in
rain 24hr
in
rain mn
in
humidity
%
barometer
mb
20260831141540 51 318 3.0 6.0 0.00 0.00 0.00 83 1010.7
20260831140029 0 0.0 0.0 0.00 0.00 0.00 1010.7
20260831134508 0 0.0 0.0 0.00 0.00 0.00 1010.7
20260831133007 0 0.0 0.0 0.00 0.00 0.00 1010.7
20260831131609 0 0.0 0.0 0.00 0.00 0.00 1010.7
20260831130053 0 0.0 0.0 0.00 0.00 0.00 1010.6
20260831124547 0 0.0 0.0 0.00 0.00 0.00 1010.5
20260831123042 0 0.0 0.0 0.00 0.00 0.00 1010.5
20260831121541 52 304 2.0 4.0 0.00 0.00 0.00 74 1010.5
20260831120039 52 104 0.0 3.0 0.00 0.00 0.00 71 1010.4
20260831114541 52 122 2.0 3.0 0.00 0.00 0.00 75 1010.3
20260831113040 51 138 2.0 4.0 0.00 0.00 0.00 76 1010.2
20260831111534 52 108 3.0 3.0 0.00 0.00 0.00 73 1010.3
20260831110021 53 111 2.0 3.0 0.00 0.00 0.00 71 1010.3
20260831104518 54 144 1.0 3.0 0.00 0.00 0.00 69 1010.3
20260831103018 55 90 1.0 3.0 0.00 0.00 0.00 69 1010.2
20260831101517 58 113 2.0 6.0 0.00 0.00 0.00 60 1010.2
20260831100016 56 100 2.0 5.0 0.00 0.00 0.00 66 1010.3
20260831094516 53 105 2.0 3.0 0.00 0.00 0.00 77 1010.5
20260831093015 53 249 2.0 3.0 0.00 0.00 0.00 79 1010.6
20260831091509 55 251 1.0 1.0 0.00 0.00 0.00 70 1010.7
20260831090008 56 251 0.0 1.0 0.00 0.00 0.00 67 1010.7
20260831084507 55 251 0.0 1.0 0.00 0.00 0.00 67 1010.7
20260831083052 55 251 0.0 1.0 0.00 0.00 0.00 73 1010.7
20260831081549 55 251 0.0 0.0 0.00 0.00 0.00 72 1010.7
20260831080032 57 251 0.0 1.0 0.00 0.00 0.00 62 1010.6
20260831074533 57 251 0.0 0.0 0.00 0.00 0.00 59 1010.7
20260831073030 58 251 0.0 1.0 0.00 0.00 0.00 57 1010.7
20260831071526 58 251 0.0 1.0 0.00 0.00 0.00 56 1010.7
20260831070030 60 251 0.0 1.0 0.00 0.00 0.00 54 1010.7
20260831063022 60 251 1.0 1.0 0.00 0.00 0.00 56 1010.7
20260831061519 61 251 0.0 0.0 0.00 0.00 0.00 52 1010.7
20260831060118 62 251 0.0 0.0 0.00 0.00 0.00 51 1010.6
20260831054513 62 251 1.0 1.0 0.00 0.00 0.00 50 1010.8
20260831053002 63 228 2.0 2.0 0.00 0.00 0.00 50 1010.8
20260831051623 63 210 1.0 1.0 0.00 0.00 0.00 50 1010.8
20260831050059 64 210 1.0 2.0 0.00 0.00 0.00 49 1010.8
20260831044556 65 210 0.0 0.0 0.00 0.00 0.00 46 1010.8
20260831043056 65 210 0.0 1.0 0.00 0.00 0.00 45 1010.8
20260831041559 66 209 0.0 1.0 0.00 0.00 0.00 43 1010.7
20260831040051 67 210 0.0 1.0 0.00 0.00 0.00 42 1010.8
20260831034531 67 42 0.0 1.0 0.00 0.00 0.00 43 1010.7
20260831033035 68 42 0.0 4.0 0.00 0.00 0.00 43 1010.6
20260831031522 68 69 1.0 2.0 0.00 0.00 0.00 42 1010.5
20260831030019 69 55 0.0 1.0 0.00 0.00 0.00 42 1010.4
20260831024512 70 56 1.0 5.0 0.00 0.00 0.00 41 1010.3
20260831023007 72 275 1.0 4.0 0.00 0.00 0.00 37 1010.1
20260831021503 75 270 1.0 2.0 0.00 0.00 0.00 27 1010.0
20260831020003 75 270 0.0 1.0 0.00 0.00 0.00 28 1010.0
20260831014501 76 270 0.0 2.0 0.00 0.00 0.00 31 1010.0
20260831013113 76 270 1.0 2.0 0.00 0.00 0.00 30 1010.0
20260831011545 76 270 1.0 4.0 0.00 0.00 0.00 27 1010.0
20260831010044 77 270 1.0 4.0 0.00 0.00 0.00 28 1010.1
20260831004541 77 263 3.0 5.0 0.00 0.00 0.00 29 1010.2
20260831001538 77 259 1.0 7.0 0.00 0.00 0.00 26 1010.3
20260831000037 77 318 2.0 5.0 0.00 0.00 0.00 24 1010.4
20260830234538 77 297 3.0 7.0 0.00 0.00 0.00 25 1010.5
20260830233033 77 269 1.0 4.0 0.00 0.00 0.00 29 1010.7
20260830231533 76 297 3.0 7.0 0.00 0.00 0.00 24 1010.9
20260830230034 76 307 4.0 8.0 0.00 0.00 0.00 24 1011.0
20260830224516 76 273 3.0 8.0 0.00 0.00 0.00 25 1011.1
20260830223011 76 273 4.0 7.0 0.00 0.00 0.00 29 1011.4
20260830221507 76 294 1.0 5.0 0.00 0.00 0.00 30 1011.6
20260830220003 76 303 1.0 5.0 0.00 0.00 0.00 33 1011.8
20260830214558 74 294 3.0 7.0 0.00 0.00 0.00 33 1012.0
20260830213054 74 298 2.0 5.0 0.00 0.00 0.00 35 1012.3
20260830211551 74 320 1.0 6.0 0.00 0.00 0.00 33 1012.5
20260830210051 74 138 2.0 8.0 0.00 0.00 0.00 33 1012.5
20260830204542 72 159 3.0 10.0 0.00 0.00 0.00 38 1012.7
20260830203048 72 164 3.0 10.0 0.00 0.00 0.00 37 1012.8
20260830201536 72 134 4.0 8.0 0.00 0.00 0.00 41 1012.9
20260830200019 71 267 4.0 12.0 0.00 0.00 0.00 41 1013.0
20260830194510 70 197 5.0 9.0 0.00 0.00 0.00 42 1013.3
20260830193009 70 248 4.0 10.0 0.00 0.00 0.00 44 1013.5
20260830191503 69 275 5.0 10.0 0.00 0.00 0.00 44 1013.6
20260830190059 69 186 4.0 10.0 0.00 0.00 0.00 46 1013.7
20260830184554 68 231 6.0 11.0 0.00 0.00 0.00 45 1013.9
20260830183101 67 213 4.0 13.0 0.00 0.00 0.00 49 1014.0
20260830181539 67 131 5.0 12.0 0.00 0.00 0.00 49 1014.1
20260830180034 66 234 6.0 12.0 0.00 0.00 0.00 49 1014.1
20260830174525 65 176 6.0 13.0 0.00 0.00 0.00 51 1014.2
20260830173032 65 165 4.0 17.0 0.00 0.00 0.00 52 1014.2
20260830171624 64 169 4.0 12.0 0.00 0.00 0.00 53 1014.2
20260830170012 63 144 7.0 11.0 0.00 0.00 0.00 55 1014.2
20260830164525 63 178 5.0 18.0 0.00 0.00 0.00 57 1014.4
20260830163006 62 190 7.0 15.0 0.00 0.00 0.00 58 1014.5
20260830161549 61 255 6.0 15.0 0.00 0.00 0.00 59 1014.6
20260830160046 60 221 3.0 15.0 0.00 0.00 0.00 61 1014.6
20260830154542 60 308 5.0 11.0 0.00 0.00 0.00 60 1014.6
20260830153037 59 276 3.0 9.0 0.00 0.00 0.00 64 1014.6
20260830151540 58 86 3.0 9.0 0.00 0.00 0.00 66 1014.4
20260830150029 57 210 5.0 13.0 0.00 0.00 0.00 69 1014.4
20260830144524 54 234 1.0 7.0 0.00 0.00 0.00 76 1014.6
20260830143020 52 325 2.0 3.0 0.00 0.00 0.00 77 1014.5